Pine Belt, MS

12:54 PM CDT on March 25, 2017 (GMT -0500)
Hattiesburg-Laurel Regional

Weather History for KPIB - January, 2013

Change the Weather History Date:

Thursday, January 24, 2013

  Actual Average Record
Temperature  
Mean Temperature 56 °F -  
Max Temperature 71 °F 57 °F 77 °F (2002)
Min Temperature 41 °F 37 °F 15 °F (2003)
Degree Days  
Heating Degree Days 9    
Growing Degree Days 6 (Base 50)    
Moisture  
Dew Point 49 °F    
Average Humidity 74    
Maximum Humidity 93    
Minimum Humidity 50    
Precipitation  
Precipitation 0.00 in - - ()
Sea Level Pressure  
Sea Level Pressure 30.28 in    
Wind  
Wind Speed 3 mph (SW)    
Max Wind Speed 10 mph    
Max Gust Speed -    
Visibility 8 miles    
Events      
Averages and records for this station are not official NWS values.
T = Trace of Precipitation, MM = Missing Value Source: NWS Daily Summary

Daily Weather History Graph

Daily Weather History Graph

Search for Another Location

Airport or City:

Trip Planner

Search our weather history database for the weather conditions in past years. The results will help you decide how hot, cold, wet, or windy it might be!

Date:

Astronomy

Jan. 24, 2013 Rise Set
Actual Time 6:54 AM CST 5:25 PM CST
Civil Twilight 6:28 AM CST 5:51 PM CST
Nautical Twilight 5:58 AM CST 6:20 PM CST
Astronomical Twilight 5:30 AM CST 6:49 PM CST
Moon 3:29 PM CST (1/24) 4:49 AM CST (1/24)
Length of Visible Light 11h 22m
Length of Day
10h 31m
Waxing Gibbous, 94% of the Moon is Illuminated
Jan 24
Waxing Gibbous
Jan 26
Full
Feb 3
Last Quarter
Feb 10
New
Feb 17
First Quarter

Hourly Weather History & Observations

Time (CST) Temp. Windchill Dew Point Humidity Pressure Visibility Wind Dir Wind Speed Gust Speed Precip Events Conditions
12:15 AM 46.4 °F - 39.2 °F 76% 30.31 in 10.0 mi Calm Calm - N/A   Clear
12:35 AM 46.4 °F 44.3 °F 42.8 °F 87% 30.30 in 10.0 mi SSW 4.6 mph - N/A   Clear
12:55 AM 44.6 °F 43.1 °F 39.2 °F 81% 30.29 in 10.0 mi SSW 3.5 mph - N/A   Clear
1:15 AM 44.6 °F - 37.4 °F 76% 30.29 in 10.0 mi Calm Calm - N/A   Clear
1:35 AM 44.6 °F - 42.8 °F 93% 30.29 in 8.0 mi Calm Calm - N/A   Clear
1:55 AM 44.6 °F 43.1 °F 39.2 °F 81% 30.28 in 9.0 mi SW 3.5 mph - N/A   Clear
2:15 AM 42.8 °F 41.1 °F 39.2 °F 87% 30.28 in 8.0 mi SW 3.5 mph - N/A   Clear
2:35 AM 42.8 °F 41.1 °F 39.2 °F 87% 30.29 in 8.0 mi WSW 3.5 mph - N/A   Clear
2:55 AM 44.6 °F 43.1 °F 42.8 °F 93% 30.29 in 8.0 mi WSW 3.5 mph - N/A   Clear
3:15 AM 44.6 °F 43.1 °F 41.0 °F 87% 30.29 in 9.0 mi SW 3.5 mph - N/A   Clear
3:35 AM 44.6 °F 43.1 °F 42.8 °F 93% 30.29 in 7.0 mi WSW 3.5 mph - N/A   Clear
3:55 AM 44.6 °F - 41.0 °F 87% 30.29 in 6.0 mi Calm Calm - N/A   Clear
4:15 AM 44.6 °F - 41.0 °F 87% 30.29 in 4.0 mi Calm Calm - N/A   Clear
4:35 AM 44.6 °F - 41.0 °F 87% 30.29 in 3.0 mi Calm Calm - N/A   Scattered Clouds
4:55 AM 46.4 °F - 42.8 °F 87% 30.30 in 6.0 mi Calm Calm - N/A   Mostly Cloudy
5:15 AM 46.4 °F - 42.8 °F 87% 30.30 in 6.0 mi Calm Calm - N/A   Scattered Clouds
5:35 AM 44.6 °F - 41.0 °F 87% 30.30 in 2.5 mi Calm Calm - N/A   Clear
5:55 AM 44.6 °F - 42.8 °F 93% 30.30 in 3.0 mi Calm Calm - N/A   Clear
6:15 AM 42.8 °F - 39.2 °F 87% 30.31 in 1.5 mi Calm Calm - N/A   Clear
6:35 AM 42.8 °F - 39.2 °F 87% 30.31 in 0.5 mi Calm Calm - N/A   Unknown
6:55 AM 41.0 °F - 37.4 °F 87% 30.32 in 0.2 mi Calm Calm - N/A   Unknown
7:15 AM 41.0 °F - 39.2 °F 93% 30.32 in 0.2 mi Calm Calm - N/A   Unknown
7:35 AM 42.8 °F - 39.2 °F 87% 30.31 in 0.8 mi Calm Calm - N/A   Mostly Cloudy
7:55 AM 46.4 °F 45.2 °F 44.6 °F 93% 30.32 in 2.5 mi SW 3.5 mph - N/A   Clear
8:15 AM 51.8 °F - 48.2 °F 88% 30.33 in 4.0 mi WSW 4.6 mph - N/A   Scattered Clouds
8:35 AM 53.6 °F - 48.2 °F 82% 30.33 in 5.0 mi WSW 4.6 mph - N/A   Scattered Clouds
8:55 AM 55.4 °F - 48.2 °F 77% 30.34 in 6.0 mi WSW 4.6 mph - N/A   Partly Cloudy
9:15 AM 57.2 °F - 50.0 °F 77% 30.35 in 8.0 mi WSW 6.9 mph - N/A   Mostly Cloudy
9:35 AM 55.4 °F - 50.0 °F 82% 30.34 in 9.0 mi WSW 3.5 mph - N/A   Overcast
9:55 AM 59.0 °F - 51.8 °F 77% 30.34 in 10.0 mi SW 5.8 mph - N/A   Partly Cloudy
10:15 AM 62.6 °F - 51.8 °F 68% 30.34 in 10.0 mi West 8.1 mph - N/A   Clear
10:35 AM 64.4 °F - 53.6 °F 68% 30.34 in 10.0 mi WSW 4.6 mph - N/A   Clear
10:55 AM 66.2 °F - 53.6 °F 64% 30.34 in 10.0 mi WSW 6.9 mph - N/A   Clear
11:15 AM 68.0 °F - 55.4 °F 64% 30.32 in 10.0 mi WSW 8.1 mph - N/A   Partly Cloudy
11:35 AM 68.0 °F - 55.4 °F 64% 30.31 in 10.0 mi West 5.8 mph - N/A   Partly Cloudy
11:55 AM 69.8 °F - 55.4 °F 60% 30.30 in 10.0 mi SW 10.4 mph - N/A   Clear
12:15 PM 71.6 °F - 55.4 °F 57% 30.29 in 10.0 mi WNW 8.1 mph - N/A   Mostly Cloudy
12:35 PM 69.8 °F - 55.4 °F 60% 30.28 in 10.0 mi West 6.9 mph - N/A   Mostly Cloudy
12:55 PM 69.8 °F - 55.4 °F 60% 30.27 in 10.0 mi West 4.6 mph - N/A   Partly Cloudy
1:15 PM 69.8 °F - 53.6 °F 56% 30.26 in 10.0 mi WSW 5.8 mph - N/A   Mostly Cloudy
1:35 PM 71.6 °F - 53.6 °F 53% 30.25 in 10.0 mi West 3.5 mph - N/A   Overcast
1:55 PM 71.6 °F - 53.6 °F 53% 30.24 in 10.0 mi NW 4.6 mph - N/A   Mostly Cloudy
2:15 PM 71.6 °F - 53.6 °F 53% 30.24 in 10.0 mi North 5.8 mph - N/A   Mostly Cloudy
2:35 PM 71.6 °F - 51.8 °F 50% 30.23 in 10.0 mi WSW 5.8 mph - N/A   Mostly Cloudy
2:55 PM 71.6 °F - 51.8 °F 50% 30.22 in 10.0 mi South 4.6 mph - N/A   Partly Cloudy
3:15 PM 71.6 °F - 51.8 °F 50% 30.22 in 10.0 mi SW 5.8 mph - N/A   Clear
3:35 PM 71.6 °F - 51.8 °F 50% 30.22 in 10.0 mi SW 4.6 mph - N/A   Partly Cloudy
3:55 PM 71.6 °F - 51.8 °F 50% 30.22 in 10.0 mi South 3.5 mph - N/A   Partly Cloudy
4:15 PM 69.8 °F - 51.8 °F 53% 30.22 in 10.0 mi SW 3.5 mph - N/A   Partly Cloudy
4:35 PM 69.8 °F - 51.8 °F 53% 30.22 in 10.0 mi WSW 3.5 mph - N/A   Partly Cloudy
4:55 PM 69.8 °F - 51.8 °F 53% 30.22 in 10.0 mi SW 3.5 mph - N/A   Scattered Clouds
5:15 PM 66.2 °F - 53.6 °F 64% 30.24 in 10.0 mi Calm Calm - N/A   Mostly Cloudy
5:35 PM 66.2 °F - 53.6 °F 64% 30.24 in 10.0 mi Calm Calm - N/A   Mostly Cloudy
5:55 PM 64.4 °F - 53.6 °F 68% 30.25 in 10.0 mi WSW 3.5 mph - N/A   Scattered Clouds
6:15 PM 64.4 °F - 53.6 °F 68% 30.25 in 10.0 mi Calm Calm - N/A   Scattered Clouds
6:35 PM 62.6 °F - 53.6 °F 72% 30.25 in 10.0 mi Calm Calm - N/A   Scattered Clouds
6:55 PM 62.6 °F - 53.6 °F 72% 30.25 in 10.0 mi Calm Calm - N/A   Scattered Clouds
7:15 PM 62.6 °F - 53.6 °F 72% 30.25 in 10.0 mi NNE 5.8 mph - N/A   Scattered Clouds
7:35 PM 62.6 °F - 53.6 °F 72% 30.25 in 10.0 mi NNE 4.6 mph - N/A   Scattered Clouds
7:55 PM 62.6 °F - 53.6 °F 72% 30.25 in 10.0 mi NNE 3.5 mph - N/A   Scattered Clouds
8:15 PM 62.6 °F - 55.4 °F 77% 30.25 in 10.0 mi NE 5.8 mph - N/A   Partly Cloudy
8:35 PM - - - N/A% 30.25 in 10.0 mi Calm Calm - N/A   Scattered Clouds
8:55 PM 60.8 °F - 55.4 °F 82% 30.26 in 10.0 mi Calm Calm - N/A   Partly Cloudy
9:15 PM 60.8 °F - 53.6 °F 77% 30.25 in 10.0 mi Calm Calm - N/A   Scattered Clouds
9:35 PM 59.0 °F - 53.6 °F 82% 30.25 in 10.0 mi SSE 8.1 mph - N/A   Mostly Cloudy
9:55 PM 59.0 °F - 53.6 °F 82% 30.26 in 10.0 mi South 3.5 mph - N/A   Partly Cloudy
10:15 PM 60.8 °F - 53.6 °F 77% 30.25 in 10.0 mi SSW 8.1 mph - N/A   Mostly Cloudy
10:35 PM 60.8 °F - 53.6 °F 77% 30.25 in 10.0 mi SSW 5.8 mph - N/A   Mostly Cloudy
10:55 PM 60.8 °F - 53.6 °F 77% 30.25 in 10.0 mi SSW 9.2 mph - N/A   Partly Cloudy
11:15 PM 60.8 °F - 53.6 °F 77% 30.24 in 10.0 mi SSW 6.9 mph - N/A   Clear
11:35 PM 59.0 °F - 51.8 °F 77% 30.24 in 10.0 mi SSW 6.9 mph - N/A   Clear
11:55 PM 59.0 °F - 51.8 °F 77% 30.24 in 10.0 mi SSW 5.8 mph - N/A   Clear